Location: Waco, TX
(31.5480°N, 97.1670°W)
Time: 22:27:33
(UTC-05:00)

ISS - Pass Details

Date: 25 May 2017
Orbit: 401 x 408 km, 51.6° (Epoch: 24 June)

Event Time Altitude Azimuth Distance (km) Brightness Sun altitude
Rises 21:37:52 0° 245° (WSW) 2,326 0.4 -14.2°
Reaches altitude 10° 21:40:07 10° 257° (WSW) 1,468 -0.4 -14.5°
Maximum altitude 21:43:03 30° 320° (NW) 769 -1.7 -15.0°
Drops below altitude 10° 21:46:01 10° 24° (NNE) 1,472 -0.8 -15.5°
Sets 21:48:16 0° 35° (NE) 2,334 0.1 -15.9°
